Location: Givhans Ferry State Park
(33.0284°N, 80.3868°W)
Time: 17:29:55
(UTC-04:00)

Daily predictions for brighter satellites

Satellite Brightness Start Highest point End
(mag) Time Altitude Azimuth Time Altitude Azimuth Time Altitude Azimuth
Cosmos 1455 Rocket 4.1 20:16:23 10° SE 20:19:49 23° E 20:23:17 10° NE
Spot 2 Rocket 3.5 20:17:25 10° SSE 20:22:31 81° ENE 20:27:38 10° N
Cosmos 1025 Rocket 3.3 20:19:10 10° N 20:23:23 46° E 20:27:32 10° SSE
Cosmos 2219 3.3 20:18:08 10° NNW 20:23:43 63° ENE 20:29:16 10° SSE
Cosmos 1570 Rocket 4.4 20:20:44 10° S 20:25:40 41° ESE 20:30:35 10° NNE
Resurs 01 Rocket 1.7 20:26:31 10° S 20:30:55 82° WSW 20:35:22 10° NNW
Cosmos 1934 Rocket 4.2 20:25:16 10° SSE 20:31:04 48° E 20:36:58 10° NNE
Cosmos 1315 Rocket 3.2 20:29:45 10° SSW 20:33:42 68° W 20:37:43 10° N
Meteor 2-4 Rocket 3.9 20:30:24 10° N 20:36:12 60° E 20:42:01 10° SSE
Cosmos 2278 4.0 20:31:46 10° S 20:37:07 45° ESE 20:42:30 10° NE
Cosmos 1697 Rocket 4.2 20:35:01 10° SE 20:37:50 14° E 20:40:39 10° ENE
Tiangong 1 3.5 20:38:14 10° WNW 20:40:36 20° NNW 20:42:57 10° NE
NOSS 7 (E) 4.3 20:40:10 10° SSW 20:43:52 72° ESE 20:47:12 10° NE
USA 186 2.4 20:43:59 13° SE 20:46:29 33° ENE 20:49:17 10° N
Myojo/LAPS 3.6 20:44:21 10° WSW 20:46:55 30° S 20:48:07 19° SE
H-2A R/B 3.0 20:44:31 10° SSE 20:48:12 48° ENE 20:51:59 10° N
CZ-4B DEB 2.8 20:46:25 10° S 20:49:40 85° WSW 20:52:58 10° NNW
Cosmos 2369 3.8 20:44:32 10° S 20:49:59 52° ESE 20:55:29 10° NNE
OTV 4 2.0 20:47:24 10° WNW 20:50:03 29° N 20:52:22 12° ENE
Meteor 1-23 Rocket 4.2 20:47:36 10° N 20:53:16 78° E 20:58:58 10° S
Cosmos 1544 Rocket 3.5 20:48:55 10° S 20:53:16 89° E 20:57:41 10° N
Delta 2 Rocket 4.2 20:47:53 10° W 20:53:31 68° N 20:57:38 16° E
ATLAS 3B CENTAUR R/B 1.3 20:53:42 10° WSW 20:55:11 19° S 20:55:18 19° S
Iridium 4 Rocket 4.4 20:53:29 10° NNE 20:57:42 26° E 20:59:35 20° ESE
OAO 2 Rocket 3.3 20:55:00 10° WSW 21:00:00 72° SSE 21:03:59 17° E
CZ-2D R/B 3.2 20:59:17 10° SSE 21:03:08 89° ENE 21:07:01 10° NNW
Cosmos 968 Rocket 4.2 21:00:24 10° NNW 21:05:24 54° WSW 21:10:21 10° S
ERS-1 Rocket 3.6 21:07:32 23° ESE 21:09:48 35° ENE 21:14:21 10° N
GOES 2 Rocket 4.2 21:06:37 10° WSW 21:10:18 30° SSW 21:12:14 21° SSE
Hubble Space Telescope 1.6 21:06:55 10° WSW 21:10:48 38° S 21:12:19 27° SE
SL-24 R/B - RUBIN 2 4.4 21:07:12 10° S 21:12:31 48° ESE 21:18:30 10° NE
Centaur AC-125 4.5 20:37:26 10° WSW 21:12:32 61° S 21:16:19 25° ESE
Cosmos 1605 Rocket 4.0 21:07:36 10° S 21:13:57 79° E 21:20:16 10° N
BREEZE-M DEB (TANK) 4.3 21:06:44 10° NW 21:15:15 37° WSW 21:17:55 15° S
Cosmos 1346 Rocket 2.7 21:15:30 10° N 21:19:28 87° E 21:21:50 23° S
YAOGAN 11 4.2 21:26:24 36° SE 21:28:06 62° ENE 21:32:33 10° N
Cosmos 2227 Rocket 2.2 21:24:35 10° NNW 21:30:12 61° ENE 21:32:23 36° SE
ALOS 3.5 21:26:15 10° SSW 21:30:38 40° W 21:35:02 10° NNW
Cosmos 468 Rocket 4.2 21:29:33 33° SSE 21:31:14 45° ESE 21:36:06 10° NNE
Cosmos 1500 3.7 21:34:20 41° NE 21:34:20 41° NE 21:37:09 10° NNE
Cosmos 1814 Rocket 4.3 21:37:53 44° ESE 21:38:13 44° ESE 21:43:15 10° NNE
Cosmos 1656 3.5 21:32:53 10° SSW 21:38:31 77° ESE 21:44:06 10° NNE
OE (NEXTSAT) 4.4 21:37:03 10° WNW 21:40:31 78° WSW 21:40:31 78° WSW
Cosmos 2082 3.6 21:37:12 10° NNW 21:42:50 74° ENE 21:44:33 45° SE
Cosmos 2297 Rocket 2.3 21:40:29 10° NNW 21:46:04 59° ENE 21:47:09 50° ESE
H-2A R/B 2.8 21:49:23 36° NE 21:49:23 36° NE 21:52:21 10° N
Lacrosse 5 3.8 21:47:49 10° N 21:50:59 16° NE 21:51:36 16° NE
SPOT 5 3.4 21:52:31 44° ENE 21:52:31 44° ENE 21:56:57 10° N
deb Chang Zheng 4 3.5 21:52:38 10° NNE 21:57:05 85° E 21:57:05 85° E
Cosmos 1626 Rocket 3.8 21:53:18 10° NNW 21:57:40 65° W 21:58:23 54° SW
Cosmos 1975 4.1 21:55:16 15° SSW 21:58:21 41° W 22:02:16 10° N
Cosmos 1515 4.3 21:56:12 10° N 21:59:10 51° NNW 21:59:10 51° NNW
Cosmos 1459 Rocket 3.8 21:59:01 50° SSE 22:00:37 73° E 22:06:40 10° N
Cosmos 2298 Rocket 4.1 21:55:52 10° N 22:00:56 57° ENE 22:00:56 57° ENE
Cosmos 1602 Rocket 4.3 22:01:16 10° NNW 22:05:36 51° W 22:06:22 45° SW
NOSS 3-4 (A) 4.1 22:00:46 10° NW 22:07:50 63° WSW 22:10:47 38° S
NOSS 3-4 (C) 4.1 22:00:53 10° NW 22:07:57 64° WSW 22:10:52 38° S
H-2A R/B 4.2 22:10:12 12° NE 22:10:12 12° NE 22:10:55 10° NNE
Nimbus 7 Rocket 4.4 22:02:54 10° NNE 22:09:00 84° WNW 22:12:29 27° SSW
Envisat 3.1 22:11:14 63° SW 22:11:48 70° WSW 22:16:53 10° NNW
Cosmos 1461 3.9 22:10:48 10° NW 22:13:43 41° WNW 22:13:43 41° WNW
Lacrosse 5 rocket 3.1 22:11:38 10° NNW 22:13:22 25° NNW 22:13:22 25° NNW
MetOp-A 4.2 22:15:54 63° NE 22:15:54 63° NE 22:20:39 10° N
Cosmos 1066 Rocket 4.1 22:09:58 10° N 22:15:40 87° W 22:16:06 77° S
Tiangong 1 4.3 22:16:13 10° NNW 22:16:48 12° NNW 22:16:48 12° NNW
Cosmos 1697 Rocket 3.1 22:15:35 10° SSW 22:21:09 61° WNW 22:26:45 10° NNE
Cosmos 1802 Rocket 3.9 22:21:00 63° S 22:22:08 88° W 22:28:36 10° N
Cosmos 1937 Rocket 4.2 22:17:06 10° N 22:21:02 45° NNE 22:21:02 45° NNE
SPOT 1/Viking Rocket 4.5 22:28:06 39° NNE 22:28:06 39° NNE 22:31:34 10° N
OTV 4 4.1 22:23:45 10° WNW 22:23:53 11° WNW 22:23:53 11° WNW
Cosmos 2150 Rocket 4.4 22:23:08 10° NNW 22:27:17 59° NNW 22:27:17 59° NNW
DELTA 2 R/B (1) 4.0 22:24:41 10° WNW 22:29:48 55° N 22:29:48 55° N
ASTEX 1 4.2 22:29:28 10° N 22:33:04 47° N 22:33:04 47° N
Terra 4.3 22:40:15 13° NNE 22:40:15 13° NNE 22:40:54 10° NNE
Cosmos 1980 Rocket 2.8 22:44:07 50° N 22:44:07 50° N 22:48:27 10° NNE
Cosmos 2016 Rocket 4.1 22:43:28 69° WNW 22:43:28 69° WNW 22:49:25 10° N
ARGOS 4.1 22:49:32 41° N 22:49:32 41° N 22:52:58 10° N
Cosmos 2263 Rocket 4.5 23:13:27 10° N 23:14:41 15° NNE 23:14:41 15° NNE
USA 215 4.0 23:29:23 46° NNW 23:29:23 46° NNW 23:33:57 10° NW
Milstar 3 Cent rocket 3.9 23:12:40 10° W 23:26:27 56° SW 23:26:27 56° SW
Lacrosse 5 4.3 23:29:26 10° NW 23:30:48 19° NW 23:30:48 19° NW
